Regional Weather Roundup
Issued by NWS

Home | Current Version | Previous Version | Graphics & Text | Print | Product List | Glossary On
Versions: 1 2 3 4 5 6 7 8 9 10 11 12 13 14 15 16 17 18 19 20 21 22 23 24 25 26 27 28 29 30 31 32 33 34 35 36 37 38 39 40 41 42 43 44 45 46 47 48 49 50
266
ASUS45 KTFX 241310
RWRMT
MONTANA REGIONAL WEATHER ROUNDUP
NATIONAL WEATHER SERVICE GREAT FALLS MT
600 AM MST FRI NOV 24 2017

NOTE: "FAIR" INDICATES FEW OR NO CLOUDS BELOW 12000 FEET WITH NO
SIGNIFICANT WEATHER AND/OR OBSTRUCTIONS TO VISIBILITY.

MTZ001>007-043-241400-
WEST OF THE DIVIDE

CITY           SKY/WX    TMP DP  RH WIND       PRES   REMARKS
KALISPELL      CLOUDY    39  30  70 SW7       29.90R
MISSOULA       FAIR      37  28  70 CALM      29.95R
BUTTE          FAIR      35  23  61 NW7       29.88R WCI  29
MULLAN PASS    CLOUDY    27  24  89 VRB7      29.91R WCI  19
ANACONDA         N/A     37  21  52 W14       29.89R WCI  29
DEER LODGE       N/A     34  23  64 NW8       29.93R WCI  27
EUREKA           N/A     37  28  70 MISG      29.89R
HAMILTON         N/A     37  25  60 E3        29.95S
LIBBY            N/A     36  34  93 CALM      29.92R
RONAN            N/A     39  27  62 CALM      29.99R
$$

MTZ008-052>055-241400-
SOUTHWEST MONTANA

CITY           SKY/WX    TMP DP  RH WIND       PRES   REMARKS
BOZEMAN        FAIR      36  29  75 SE5       29.91R
DILLON         MOCLDY    39  29  67 S17       29.89R WCI  30
W YELLOWSTONE  FAIR      34  32  93 N5        29.88S
ENNIS          CLOUDY    41  32  70 N9        29.94R
$$

MTZ009-010-012-014-046-048-049-054-241400-
EAST SLOPES AND CENTRAL MONTANA

CITY           SKY/WX    TMP DP  RH WIND       PRES   REMARKS
CUT BANK       FAIR      34  25  69 W16       29.74R WCI  24
GREAT FALLS    FAIR      34  20  56 SW17      29.79R WCI  23
MALMSTROM AFB  FAIR      38  22  52 W14       29.80R WCI  29
HELENA         FAIR      39  25  57 CALM      29.89R
BOWMANS CRNR   FAIR      35  21  56 W18       29.79R WCI  24
CHOTEAU          N/A     37  19  48 SW7       29.80R
FAIRFIELD      FAIR      37  20  50 W13       29.79R WCI  29
POWER          FAIR      32  22  69 W14       29.78R WCI  22
RAYNESFORD     FAIR      41  18  39 SW20G28   29.79R
ULM            FAIR      40  23  50 W17       29.81R
$$

MTZ011-013-016-021-045-047-050-051-241400-
NORTH CENTRAL MONTANA

CITY           SKY/WX    TMP DP  RH WIND       PRES   REMARKS
HAVRE          FAIR      36  31  82 SW14      29.73R WCI  27
LEWISTOWN      FAIR      38  23  55 W12G23    29.79R WCI  30
N BAR RANCH    FAIR      41  18  38 NW28G40   29.72S
CHINOOK          N/A     37  34  87 W12       29.71R WCI  30
DENTON         FAIR      42  20  41 W17G23    29.74R
GEYSER         FAIR      38  23  55 W29       29.75F WCI  26
GRASS RANGE    FAIR      43  21  42 W28G36    29.70R
STANFORD       FAIR      37  20  49 NW16      29.77R WCI  28
WINIFRED       FAIR      38  26  61 W15       29.75R WCI  29
$$

MTZ017>020-022>027-061-062-241400-
NORTHEAST MONTANA

CITY           SKY/WX    TMP DP  RH WIND       PRES   REMARKS
GLASGOW        CLOUDY    40  36  86 W12       29.62R
GLENDIVE       FAIR      42  36  79 NW18G26   29.61R
JORDAN           N/A     39  32  76 W13       29.65R WCI  31
SIDNEY         CLOUDY    42  37  82 NW12      29.56R
WOLF POINT     CLOUDY    40  35  83 W12       29.60R
MALTA          CLEAR     39  36  87 NW24G31   29.65R WCI  28
POPLAR           N/A     39  34  81 W10       29.59R
SCOBEY           N/A     39  32  76 CALM      29.57
$$

MTZ028>42-056>058-241400-
SOUTHCENTRAL AND SOUTHEAST MONTANA

CITY           SKY/WX    TMP DP  RH WIND       PRES   REMARKS
BAKER          MOCLDY    44  41  89 W17       29.60R
BILLINGS       FAIR      47  25  42 NW20G31   29.75R
LIVINGSTON     CLOUDY    41  32  70 W8        29.86R
MILES CITY     MOCLDY    43  39  86 NW10      29.67R
BIG TIMBER     CLEAR     43  25  49 NW13G20   29.85R
EKALAKA          N/A     44  40  86 W9        29.65R
FORSYTH          N/A     46  37  71 W9        29.69R
HARLOWTON      FAIR      37  23  56 NW24      29.79R WCI  26
LAUREL           N/A     46  30  53 W21       29.76S
$$

REGIONAL REPORTS...DAKOTAS

CITY           SKY/WX    TMP DP  RH WIND       PRES   REMARKS
WILLISTON      CLOUDY    42  36  79 NW15      29.53R
MINOT          LGT RAIN  42  38  85 W18G25    29.40R
DICKINSON      FAIR      47  42  83 W29G35    29.46R
BEACH          FAIR      43  39  87 NW24G35   29.59R
CROSBY         FAIR      39  37  93 NW21G32   29.50R WCI  29
TIOGA          CLOUDY    37  37 100 NW14G20   29.50R WCI  29
WATFORD CITY   MOCLDY    41  41 100 NW13G20   29.51R
BISMARCK       CLOUDY    53  46  77 W14       29.39F
GRAND FORKS    LGT RAIN  38  36  92 W8        29.29R
FARGO          CLOUDY    46  37  71 CALM      29.30R
RAPID CITY     FAIR      56  34  43 N37G48    29.61R
$$

REGIONAL REPORTS...WYOMING/IDAHO/WASHINGTON

CITY           SKY/WX    TMP DP  RH WIND       PRES   REMARKS
GILLETTE       CLOUDY    48  38  68 NW30G37   29.73R
SHERIDAN       LGT RAIN  46  43  89 NW16      29.75R
BUFFALO WY     CLOUDY    46  36  68 NW23G32   29.76R
CODY           FAIR      45  39  79 E3        29.80R
YELLOWSTONE LA   N/A     35  30  82 W8G20     29.91R WCI  29
IDAHO FALLS    CLOUDY    44  39  82 S14       29.91R
SALMON         CLOUDY    41  38  89 S3        29.96R
BOISE          LGT RAIN  49  46  90 NW14      29.99R
SPOKANE        CLOUDY    36  34  92 S9        29.97R WCI  29
$$

REGIONAL REPORTS...ALBERTA

CITY           SKY/WX    TMP DP  RH WIND       PRES   REMARKS
EDMONTON       MOCLDY    36  25  64 W8        29.53R WCI  29
CALGARY        MOCLDY    37  19  48 VRB2      29.61R
LETHBRIDGE     CLEAR     39  25  56 W21       29.70R WCI  29
$$

REGIONAL REPORTS...SASKATCHEWAN

CITY           SKY/WX    TMP DP  RH WIND       PRES   REMARKS
SWIFT CURRENT  CLEAR     32  32 100 W17       29.57R WCI  21
REGINA         CLEAR     36  34  93 W16       29.46R WCI  26
SASKATOON      PTCLDY    28  25  86 W13       29.46R WCI  18
$$




USA.gov is the U.S. government's official web portal to all federal, state and local government web resources and services.